, AK

(GMT )
Gustavus

Weather History for PAGS - January, 2012

Change the Weather History Date:

Sunday, January 22, 2012

  Actual Average Record
Temperature  
Mean Temperature 32 °F -  
Max Temperature 35 °F 35 °F 48 °F (2015)
Min Temperature 28 °F 24 °F -17 °F (1952)
Degree Days  
Heating Degree Days 34    
Moisture  
Dew Point 27 °F    
Average Humidity 75    
Maximum Humidity 93    
Minimum Humidity 70    
Precipitation  
Precipitation 0.00 in - - ()
Sea Level Pressure  
Sea Level Pressure 29.06 in    
Wind  
Wind Speed 13 mph (SE)    
Max Wind Speed 18 mph    
Max Gust Speed 24 mph    
Visibility 9 miles    
Events      
Averages and records for this station are not official NWS values.
T = Trace of Precipitation, MM = Missing Value Source: NWS Daily Summary

Daily Weather History Graph

Daily Weather History Graph

Search for Another Location

Airport or City:

Trip Planner

Search our weather history database for the weather conditions in past years. The results will help you decide how hot, cold, wet, or windy it might be!

Date:

Astronomy

Jan. 22, 2012 Rise Set
Actual Time 8:28 AM AKST 4:00 PM AKST
Civil Twilight 7:41 AM AKST 4:48 PM AKST
Nautical Twilight 6:51 AM AKST 5:38 PM AKST
Astronomical Twilight 6:04 AM AKST 6:25 PM AKST
Moon 7:47 AM AKST (1/22) 3:58 PM AKST (1/22)
Length of Visible Light 9h 06m
Length of Day
7h 32m
Waning Crescent, 0% of the Moon is Illuminated
Jan 22
Waning Crescent
Jan 22
New
Jan 30
First Quarter
Feb 7
Full
Feb 14
Last Quarter

Hourly Weather History & Observations

Time (AKST) Temp. Windchill Dew Point Humidity Pressure Visibility Wind Dir Wind Speed Gust Speed Precip Events Conditions
12:16 AM - - - N/A% 28.87 in 10.0 mi SE 18.4 mph - N/A   Overcast
12:36 AM - - - N/A% 28.89 in 10.0 mi SE 15.0 mph 20.7 mph N/A   Mostly Cloudy
12:56 AM - - - N/A% 28.91 in 10.0 mi SE 15.0 mph 23.0 mph N/A   Overcast
1:16 AM - - - N/A% 28.92 in 10.0 mi SE 15.0 mph - N/A   Mostly Cloudy
1:36 AM - - - N/A% 28.94 in 10.0 mi SE 16.1 mph 24.2 mph N/A   Mostly Cloudy
1:56 AM - - - N/A% 28.96 in 10.0 mi SE 13.8 mph - N/A   Mostly Cloudy
2:16 AM - - - N/A% 28.98 in 5.0 mi SSE 11.5 mph 21.9 mph N/A   Overcast
2:36 AM - - - N/A% 28.99 in 10.0 mi SE 15.0 mph 18.4 mph N/A   Overcast
2:56 AM - - - N/A% 29.00 in 3.0 mi SE 13.8 mph 23.0 mph N/A   Overcast
3:16 AM - - - N/A% 29.01 in 10.0 mi SSE 12.7 mph - N/A   Overcast
3:36 AM - - - N/A% 29.03 in 10.0 mi SE 13.8 mph 17.3 mph N/A   Overcast
3:56 AM - - - N/A% 29.05 in 10.0 mi SSE 10.4 mph - N/A   Overcast
4:16 AM - - - N/A% 29.05 in 10.0 mi SE 12.7 mph - N/A   Overcast
4:36 AM - - - N/A% 29.06 in 10.0 mi SE 10.4 mph - N/A   Overcast
4:56 AM - - - N/A% 29.07 in 8.0 mi SE 10.4 mph - N/A   Overcast
5:16 AM - - - N/A% 29.07 in 10.0 mi SE 15.0 mph - N/A   Overcast
5:36 AM - - - N/A% 29.07 in 3.0 mi SE 17.3 mph 21.9 mph N/A   Overcast
5:56 AM - - - N/A% 29.08 in 3.0 mi SE 12.7 mph - N/A   Overcast
6:16 AM - - - N/A% 29.09 in 3.0 mi SE 9.2 mph - N/A   Overcast
6:36 AM - - - N/A% 29.09 in 2.5 mi SE 12.7 mph 18.4 mph N/A   Overcast
6:56 AM - - - N/A% 29.09 in 5.0 mi SE 13.8 mph 18.4 mph N/A   Mostly Cloudy
7:16 AM - - - N/A% 29.10 in 5.0 mi SSE 11.5 mph - N/A   Overcast
7:36 AM - - - N/A% 29.10 in 5.0 mi SSE 12.7 mph - N/A   Overcast
7:56 AM - - - N/A% 29.11 in 10.0 mi SE 12.7 mph - N/A   Overcast
8:16 AM - - - N/A% 29.10 in 10.0 mi SE 13.8 mph - N/A   Overcast
8:36 AM - - - N/A% 29.11 in 10.0 mi SE 13.8 mph 18.4 mph N/A   Overcast
8:56 AM - - - N/A% 29.11 in 9.0 mi SSE 12.7 mph - N/A   Overcast
9:16 AM - - - N/A% 29.11 in 4.0 mi SE 13.8 mph 18.4 mph N/A   Overcast
9:36 AM - - - N/A% 29.11 in 10.0 mi SSE 9.2 mph - N/A   Overcast
9:56 AM - - - N/A% 29.11 in 10.0 mi SSE 8.1 mph - N/A   Mostly Cloudy
10:16 AM - - - N/A% 29.11 in 10.0 mi SSE 11.5 mph - N/A   Overcast
10:36 AM - - - N/A% 29.11 in 10.0 mi SSE 11.5 mph - N/A   Overcast
10:56 AM - - - N/A% 29.10 in 10.0 mi SSE 11.5 mph - N/A   Overcast
11:16 AM 35.6 °F 27.5 °F 28.4 °F 75% 29.10 in 10.0 mi SSE 11.5 mph - N/A   Overcast
11:36 AM 35.6 °F 26.2 °F 26.6 °F 70% 29.10 in 10.0 mi SE 15.0 mph 20.7 mph N/A   Overcast
11:56 AM 35.6 °F 28.0 °F 26.6 °F 70% 29.10 in 10.0 mi SE 10.4 mph - N/A   Mostly Cloudy
12:16 PM 35.6 °F 28.0 °F 28.4 °F 75% 29.10 in 10.0 mi SE 10.4 mph - N/A   Mostly Cloudy
12:36 PM 35.6 °F 27.5 °F 28.4 °F 75% 29.09 in 10.0 mi SE 11.5 mph - N/A   Mostly Cloudy
12:56 PM 35.6 °F 28.0 °F 28.4 °F 75% 29.09 in 10.0 mi SE 10.4 mph - N/A   Mostly Cloudy
1:16 PM 35.6 °F 27.5 °F 26.6 °F 70% 29.09 in 10.0 mi SE 11.5 mph - N/A   Overcast
1:36 PM 35.6 °F 27.5 °F 26.6 °F 70% 29.08 in 10.0 mi SE 11.5 mph - N/A   Overcast
1:56 PM 35.6 °F 27.5 °F 26.6 °F 70% 29.08 in 10.0 mi SE 11.5 mph - N/A   Overcast
2:16 PM 35.6 °F 28.0 °F 26.6 °F 70% 29.08 in 10.0 mi SE 10.4 mph - N/A   Overcast
2:36 PM 35.6 °F 29.9 °F 26.6 °F 70% 29.07 in 10.0 mi SE 6.9 mph - N/A   Mostly Cloudy
2:56 PM 35.6 °F 29.2 °F 26.6 °F 70% 29.07 in 10.0 mi SE 8.1 mph - N/A   Partly Cloudy
3:16 PM 33.8 °F 27.7 °F 26.6 °F 75% 29.07 in 10.0 mi SE 6.9 mph - N/A   Clear
3:36 PM 33.8 °F 28.6 °F 26.6 °F 75% 29.07 in 10.0 mi SE 5.8 mph - N/A   Clear
3:56 PM 33.8 °F 28.6 °F 26.6 °F 75% 29.06 in 10.0 mi SSE 5.8 mph - N/A   Clear
4:16 PM 32.0 °F 28.7 °F 24.8 °F 75% 29.06 in 10.0 mi South 3.5 mph - N/A   Partly Cloudy
4:36 PM 30.2 °F - 24.8 °F 80% 29.06 in 10.0 mi Calm Calm - N/A   Mostly Cloudy
4:56 PM 30.2 °F - 24.8 °F 80% 29.06 in 10.0 mi Calm Calm - N/A   Mostly Cloudy
5:16 PM 30.2 °F - 26.6 °F 86% 29.06 in 10.0 mi Calm Calm - N/A   Overcast
5:36 PM 28.4 °F - 24.8 °F 86% 29.06 in 10.0 mi Calm Calm - N/A   Mostly Cloudy
5:56 PM 28.4 °F - 26.6 °F 93% 29.05 in 10.0 mi Calm Calm - N/A   Mostly Cloudy
6:16 PM - - - N/A% 29.04 in 1.5 mi NNW 4.6 mph - N/A   Scattered Clouds
6:36 PM - - - N/A% 29.04 in 6.0 mi Calm Calm - N/A   Scattered Clouds
6:56 PM 26.6 °F 19.1 °F 24.8 °F 93% 29.05 in 1.0 mi NNW 6.9 mph - N/A   Overcast
7:16 PM - - - N/A% 29.04 in 10.0 mi Calm Calm - N/A   Mostly Cloudy
7:36 PM - - - N/A% 29.04 in 5.0 mi Calm Calm - N/A   Overcast
7:56 PM - - - N/A% 29.04 in 2.5 mi NNW 5.8 mph - N/A   Mostly Cloudy
8:16 PM - - - N/A% 29.04 in 10.0 mi NNW 5.8 mph - N/A   Partly Cloudy
8:36 PM - - - N/A% 29.04 in 10.0 mi NW 4.6 mph - N/A   Clear
8:56 PM - - - N/A% 29.04 in 10.0 mi Calm Calm - N/A   Partly Cloudy
9:16 PM - - - N/A% 29.04 in 2.5 mi Calm Calm - N/A   Partly Cloudy
9:36 PM - - - N/A% 29.04 in 0.5 mi Calm Calm - N/A   Mostly Cloudy
9:56 PM - - - N/A% 29.05 in 10.0 mi Calm Calm - N/A   Scattered Clouds
10:16 PM - - - N/A% 29.05 in 10.0 mi Calm Calm - N/A   Mostly Cloudy
10:36 PM - - - N/A% 29.05 in 10.0 mi Calm Calm - N/A   Overcast
10:56 PM - - - N/A% 29.06 in 8.0 mi Calm Calm - N/A   Overcast
11:36 PM 24.8 °F - 21.2 °F 86% 29.08 in 10.0 mi Calm Calm - N/A   Overcast
11:56 PM 24.8 °F - 21.2 °F 86% 29.08 in 10.0 mi Calm Calm - N/A   Overcast